Regional Weather Roundup
Issued by NWS

Home | Current Version | Previous Version | Graphics & Text | Print | Product List | Glossary On
Versions: 1 2 3 4 5 6 7 8 9 10 11 12 13 14 15 16 17 18 19 20 21 22 23 24 25 26 27 28 29 30 31 32 33 34 35 36 37 38 39 40 41 42 43 44 45 46 47 48 49 50
000
ASUS43 KMPX 272201
RWRMN
WEATHER ROUNDUP FOR MINNESOTA
NATIONAL WEATHER SERVICE TWIN CITIES/CHANHASSEN MN
500 PM CDT FRI MAR 27 2015


NOTE: "FAIR" INDICATES FEW OR NO CLOUDS BELOW 12,000 FEET WITH NO
SIGNIFICANT WEATHER AND/OR OBSTRUCTIONS TO VISIBILITY. N/A MEANS
CURRENT SKY AND/OR WEATHER CONDITIONS ARE NOT AVAILABLE.

MNZ060>063-068>070-272300-
   Twin Cities Metro

CITY           SKY/WX    TMP DP  RH WIND       PRES   REMARKS
TWIN CITIES    MOSUNNY   35   5  28 VRB5      30.15F WCI  31
ST PAUL        SUNNY     36   7  29 SE9       30.16F
CRYSTAL        SUNNY     36   1  22 CALM      30.14F
BLAINE         MOSUNNY   37   0  20 SW7       30.14F
LAKEVILLE      SUNNY     28   7  40 S6        30.16F WCI  22
EDEN PRAIRIE   SUNNY     33   7  33 S8        30.15F WCI  26
SOUTH ST PAUL  SUNNY     35   6  30 S5        30.15F WCI  31
LAKE ELMO      FAIR      36   3  25 S5        30.15F
$$
MNZ001>005-007-008-013>017-022>024-027-028-272300-
   Northwest Minnesota

CITY           SKY/WX    TMP DP  RH WIND       PRES   REMARKS
BEMIDJI        CLOUDY    34   4  28 CALM      30.07F
HALLOCK        LGT SNOW  30  21  69 S15       30.09S WCI  19
ROSEAU         CLOUDY    34  10  37 S7        30.10S WCI  28
WARROAD        CLOUDY    32  16  51 E5        30.11S WCI  27
THIEF RVR FALL CLOUDY    32  10  40 S7        30.10S WCI  26
CROOKSTON      CLOUDY    34  16  47 S6G16     30.11S WCI  29
FOSSTON        CLOUDY    34   7  32 S7        30.09S WCI  28
DETROIT LAKES  PTSUNNY   34   9  35 SW6       30.09S WCI  29
MOORHEAD       CLOUDY    36  -2  20 S6        30.10S
PARK RAPIDS    PTSUNNY   35   2  24 SE6       30.07F WCI  30
MAHNOMEN       CLOUDY    33   5  30 S8        30.09S WCI  26
$$
MNZ006-009>011-018-025>026-272300-
   North Central Minnesota

CITY           SKY/WX    TMP DP  RH WIND       PRES   REMARKS
BAUDETTE       MOSUNNY   33   6  32 SE7       30.09F WCI  27
FLAG ISLAND    MOSUNNY   27  10  50 SE7       30.10S WCI  19
INTL FALLS     SUNNY     35   4  27 SW7       30.09F WCI  29
WASKISH        PTSUNNY   32   9  37 CALM      30.10F
BIG FORK       MOSUNNY   36   1  23 S7        30.10S
LONGVILLE      PTSUNNY   34   1  25 SE5       30.09F WCI  30
GRAND RAPIDS   MOSUNNY   34   1  25 E7        30.10S WCI  28
CRANE LAKE     SUNNY     34  -6  18 S1        30.13S
ORR            SUNNY     36  -2  20 CALM      30.08S
COOK           SUNNY     36   1  23 SW5       30.10F
WALKER         FAIR      32   4  31 E5        30.08F WCI  27
$$
MNZ012-019>021-037-272300-
   Northeast Minnesota

CITY           SKY/WX    TMP DP  RH WIND       PRES   REMARKS
DULUTH         SUNNY     29   2  31 SE9       30.12F WCI  20
ELY            SUNNY     34  -2  21 SW3       30.10S
HIBBING        SUNNY     35  -2  20 VRB3      30.10S
EVELETH        SUNNY     34   1  25 S8        30.11S WCI  27
DULUTH HARBOR  SUNNY     30  12  47 CALM      30.19F
TWO HARBORS    SUNNY     30   9  40 S6        30.14F WCI  24
SILVER BAY     SUNNY     27   7  43 SE6       30.15S WCI  20
GRAND MARAIS     N/A     22   9  57 SW5       30.22S WCI  16
G MARAIS ARPRT SUNNY     19   3  49 S5        30.12S WCI  13
$$
MNZ029>031-032-039>041-046>048-054>057-064-272300-
   West Central Minnesota

CITY           SKY/WX    TMP DP  RH WIND       PRES   REMARKS
FERGUS FALLS   CLOUDY    34   3  27 S12       30.11F WCI  25
WHEATON        CLOUDY    34  10  37 SE10      30.10F WCI  26
MORRIS         CLOUDY    34  16  47 SE10      30.09F WCI  26
ALEXANDRIA     CLOUDY    31  11  43 SW12      30.11F WCI  22
ELBOW LAKE     PTSUNNY   33  12  42 SE12      30.09F WCI  24
WADENA         CLOUDY    34   7  32 S6        30.08F WCI  29
GLENWOOD       PTSUNNY   32  14  47 S10       30.12S WCI  24
APPLETON       CLOUDY    37   5  25 S6        30.10F
BENSON         CLOUDY    36   9  32 CALM      30.12S
ORTONVILLE     CLOUDY    37   7  28 S8        30.08F
MADISON        CLOUDY    37   3  23 S7        30.10S
WILLMAR        FAIR      34  12  40 SE5       30.14S WCI  30
$$
MNZ033>034-036-042>043-049>051-058-059-272300-
   Central Minnesota

CITY           SKY/WX    TMP DP  RH WIND       PRES   REMARKS
ST CLOUD       MOSUNNY   34   4  28 S7        30.13F WCI  28
SAUK CENTRE    FAIR      32  11  41 S8        30.12F WCI  25
PAYNESVILLE    MOSUNNY   29  11  48 SE6       30.14S WCI  23
AITKIN         MOSUNNY   36 -11  13 SE5       30.11F
PINE RIVER     PTSUNNY   34   9  35 CALM      30.12S
BRAINERD       PTSUNNY   34   0  23 SW9       30.11F WCI  27
STAPLES        PTSUNNY   34   3  27 S5        30.10S WCI  30
LONG PRAIRIE   PTSUNNY   32   9  37 S7        30.11F WCI  26
LITTLE FALLS   MOSUNNY   34   3  27 SW7       30.12S WCI  28
LITCHFIELD     MOSUNNY   30   9  40 CALM      30.15S
MAPLE LAKE     MOSUNNY   35  10  35 SE6       30.15F WCI  30
$$
MNZ037-044-045-052-053-272300-
   East Central Minnesota

CITY           SKY/WX    TMP DP  RH WIND       PRES   REMARKS
PRINCETON      MOSUNNY   37   1  22 CALM      30.14S
MORA           MOSUNNY   34   3  27 CALM      30.15F
CAMBRIDGE      SUNNY     37  14  38 SW7       30.12F
RUSH CITY      SUNNY     35   4  27 CALM      30.14F
MOOSE LAKE     SUNNY     36   5  27 CALM      30.11S
HINCKLEY       FAIR      34   7  32 SW3       30.14F
CLOQUET        SUNNY     34  -2  21 CALM      30.11F
MCGREGOR       MOSUNNY   34   3  27 SW5       30.12S WCI  30
$$
MNZ071>073-080-081-089-090-097-098-272300-
   Southwest Minnesota

CITY           SKY/WX    TMP DP  RH WIND       PRES   REMARKS
MONTEVIDEO     CLOUDY    36  12  38 S7        30.12S
GRANITE FALLS  CLOUDY    35  12  38 SE8       30.13F WCI  29
CANBY          CLOUDY    37   4  25 S6        30.10F
MARSHALL       CLOUDY    36   9  32 SW9       30.11S
REDWOOD FALLS  PTSUNNY   37  12  35 S10       30.12F
OLIVIA         PTSUNNY   32  19  59 SE9       30.12F WCI  24
PIPESTONE      CLOUDY    34   9  35 SW10      30.08S WCI  26
WINDOM         PTSUNNY   37   7  28 CALM      30.10F
WORTHINGTON    CLOUDY    34   9  35 SW10      30.11S WCI  26
JACKSON        CLOUDY    36   5  27 S5        30.11F
TRACY          CLOUDY    37   8  30 S6        30.10F
SLAYTON        CLOUDY    34   0  23 CALM      30.10S
$$
MNZ065>067-074>077-082>085-091>093-272300-
   South Central Minnesota

CITY           SKY/WX    TMP DP  RH WIND       PRES   REMARKS
MANKATO        MOSUNNY   30  10  43 SE8       30.15F WCI  23
NEW ULM        MOSUNNY   36  12  38 S7        30.13F
ST JAMES       MOSUNNY   37  10  32 SE7       30.14F
FAIRMONT       MOSUNNY   36   5  27 SW5       30.12F
GLENCOE        PTSUNNY   31   8  37 CALM      30.15F
FARIBAULT      MOSUNNY   32   7  34 CALM      30.16F
OWATONNA       SUNNY     28   5  37 CALM      30.16F
WASECA         MOSUNNY   32  12  43 E3        30.17F
ALBERT LEA     SUNNY     34  12  40 NE7       30.14F WCI  28
$$
MNZ078>079-086>088-094>096-272300-
   Southeast Minnesota

CITY           SKY/WX    TMP DP  RH WIND       PRES   REMARKS
ROCHESTER      SUNNY     27  11  51 SW7       30.16F WCI  19
RED WING       SUNNY     36   5  27 W3        30.16F
STANTON        SUNNY     31   2  29 CALM      30.15F
DODGE CENTER   SUNNY     28   3  34 CALM      30.15F
WINONA         SUNNY     34   9  35 NW5       30.18F WCI  30
AUSTIN         SUNNY     28  10  47 NE7       30.15F WCI  21
PRESTON        SUNNY     28  11  48 W3        30.16F
$$
ABBREVIATIONS USED IN REMARKS
   TC - TEMPERATURES IN CELSIUS
  WCI - WIND CHILL INDEX
   HX - HEAT INDEX
  VSB - VISIBILITY
$$



USA.gov is the U.S. government's official web portal to all federal, state and local government web resources and services.